Regional Weather Roundup
Issued by NWS

Home | Current Version | Previous Version | Graphics & Text | Print | Product List | Glossary On
Versions: 1 2 3 4 5 6 7 8 9 10 11 12 13 14 15 16 17 18 19 20 21 22 23 24 25 26 27 28 29 30 31 32 33 34 35 36 37 38 39 40 41 42 43 44 45 46 47 48 49 50
000
ASUS43 KLMK 030402
RWRKY
KENTUCKY REGIONAL WEATHER ROUNDUP
NATIONAL WEATHER SERVICE LOUISVILLE KY
1200 AM EDT SUN MAY 03 2015

NOTE "FAIR" INDICATES FEW OR NO CLOUDS BELOW 12,000 FEET
WITH NO SIGNIFICANT WEATHER AND/OR OBSTRUCTIONS TO VISIBILITY.

KYZ001>023-026-027-061>063-070>075-030500-
WESTERN AND SOUTH CENTRAL KENTUCKY

CITY           SKY/WX    TMP DP  RH WIND       PRES   REMARKS
PADUCAH        CLEAR     56  48  74 S5        30.04F
HENDERSON      PTCLDY    55  48  76 CALM      30.05S
OWENSBORO      PTCLDY    58  52  80 CALM      30.07S
HOPKINSVILLE   CLEAR     60  53  78 NE2       30.06F
BOWLING GREEN  PTCLDY    55  48  77 CALM      30.08S
GLASGOW        NOT AVBL
$$

KYZ024-025-028>034-038-045-046-053-030500-
NORTH CENTRAL KENTUCKY

CITY           SKY/WX    TMP DP  RH WIND       PRES   REMARKS
LOUISVILLE/SDF MOCLDY    64  47  53 SE3       30.08S
LOUISVILLE/LOU PTCLDY    59  47  64 CALM      30.08S
FORT KNOX      CLEAR     54  46  75 CALM      30.07S
$$

KYZ035>037-039>044-047>052-055>060-089>105-030500-
NORTHEAST KENTUCKY

CITY           SKY/WX    TMP DP  RH WIND       PRES   REMARKS
LEXINGTON      PTCLDY    55  46  71 S6        30.10S
COVINGTON      PTCLDY    57  46  66 CALM      30.07S
FRANKFORT      PTCLDY    54  45  71 CALM      30.07F
$$

KYZ054-064>069-076>088-106>120-030500-
SOUTHEAST KENTUCKY

CITY           SKY/WX    TMP DP  RH WIND       PRES   REMARKS
JACKSON        CLEAR     63  35  35 CALM      30.12S
LONDON         CLEAR     53  44  71 CALM      30.11S
SOMERSET       NOT AVBL
MIDDLESBORO    CLEAR     49  45  87 CALM      30.14S
MONTICELLO     CLEAR     50  46  85 CALM      30.14S
$$




USA.gov is the U.S. government's official web portal to all federal, state and local government web resources and services.